Location: Bronnegerveen
(52.9548°N, 6.8388°E)
Time: 01:15:59
(UTC+00:00)

Cosmos 2221 Rocket - Pass Details

Date: 15 June 2025
Orbit: 617 x 641 km, 82.5° (Epoch: 07 July)

Event Time Altitude Azimuth Distance (km) Brightness Sun altitude
Exits shadow 01:21:46 14° 195° (SSW) 1,754 5.2 -10.2°
Maximum altitude 01:25:35 78° 281° (W) 642 3.6 -9.9°
Drops below altitude 10° 01:30:02 10° 9° (N) 2,006 7.5 -9.6°
Sets 01:32:17 0° 11° (N) 2,922 8.7 -9.5°
